FW9022 Weather Reports


Display with metric or nautical units.
time (UTC)temp
F
wind
direction
speed
MPH
gust
MPH
rain 1hr
in
rain 24hr
in
rain mn
in
humidity
%
barometer
mb
20260510074835 49 64 0.0 0.0 0.00 0.00 0.00 94 1014.0
20260510073850 50 65 0.0 0.0 0.00 0.00 0.00 94 1014.8
20260510072823 50 65 0.0 0.0 0.00 0.00 0.00 94 1014.6
20260510071816 50 65 0.0 0.0 0.00 0.00 0.00 94 1014.6
20260510070844 50 65 0.0 0.0 0.00 0.00 0.00 94 1014.5
20260510065824 50 64 0.0 0.0 0.00 0.00 0.00 94 1014.2
20260510064818 51 64 0.0 0.0 0.00 0.00 0.00 94 1014.2
20260510063832 51 65 0.0 0.0 0.00 0.00 0.00 93 1014.1
20260510062830 51 65 0.0 0.0 0.00 0.00 0.00 93 1014.3
20260510061844 51 64 0.0 0.0 0.00 0.00 0.00 93 1014.3
20260510060908 52 65 0.0 0.0 0.00 0.00 0.00 93 1014.4
20260510055827 52 65 0.0 0.0 0.00 0.00 0.00 93 1014.3
20260510054824 52 65 0.0 0.0 0.00 0.00 0.00 92 1014.3
20260510053818 53 64 0.0 0.0 0.00 0.00 0.00 92 1014.4
20260510052833 53 65 0.0 0.0 0.00 0.00 0.00 92 1014.5
20260510051830 53 65 0.0 0.0 0.00 0.00 0.00 91 1014.5
20260510050835 54 65 0.0 0.0 0.00 0.00 0.00 91 1014.8
20260510045834 54 65 0.0 0.0 0.00 0.00 0.00 91 1014.7
20260510044829 54 65 0.0 0.0 0.00 0.00 0.00 91 1014.7
20260510043826 54 65 0.0 0.0 0.00 0.00 0.00 90 1014.6
20260510042819 55 64 0.0 0.0 0.00 0.00 0.00 89 1014.5
20260510041833 55 65 0.0 0.0 0.00 0.00 0.00 89 1014.5
20260510040843 56 64 0.0 0.0 0.00 0.00 0.00 88 1014.7
20260510035822 56 65 0.0 0.0 0.00 0.00 0.00 88 1014.3
20260510034836 56 64 0.0 0.0 0.00 0.00 0.00 88 1014.3
20260510033829 56 64 0.0 0.0 0.00 0.00 0.00 87 1014.6
20260510032827 57 65 0.0 0.0 0.00 0.00 0.00 87 1014.3
20260510031841 57 64 0.0 0.0 0.00 0.00 0.00 87 1014.3
20260510030845 57 65 0.0 0.0 0.00 0.00 0.00 85 1014.5
20260510025828 58 65 0.0 0.0 0.00 0.00 0.00 85 1014.3
20260510024823 58 65 0.0 0.0 0.00 0.00 0.00 84 1014.3
20260510023836 59 65 0.0 0.0 0.00 0.00 0.00 83 1014.1
20260510022830 59 65 0.0 0.0 0.00 0.00 0.00 82 1014.0
20260510021827 60 65 0.0 0.0 0.00 0.00 0.00 81 1014.0
20260510020832 60 65 0.0 0.0 0.00 0.00 0.00 80 1014.1
20260510015833 60 64 0.0 0.0 0.00 0.00 0.00 78 1013.8
20260510014832 61 65 0.0 0.0 0.00 0.00 0.00 78 1013.8
20260510013827 61 65 0.0 0.0 0.00 0.00 0.00 77 1013.6
20260510012821 62 64 0.0 0.0 0.00 0.00 0.00 75 1013.1
20260510011833 63 65 0.0 0.0 0.00 0.00 0.00 75 1013.1
20260510010842 64 64 0.0 0.0 0.00 0.00 0.00 73 1012.6
20260510005822 64 65 0.0 0.0 0.00 0.00 0.00 69 1012.4
20260510004835 65 65 0.0 0.0 0.00 0.00 0.00 68 1012.4
20260510003831 66 65 0.0 0.0 0.00 0.00 0.00 64 1012.1
20260510002829 67 64 0.0 0.0 0.00 0.00 0.00 61 1011.8
20260510001823 67 65 0.0 1.0 0.00 0.00 0.00 60 1011.8
20260510000909 68 65 0.0 3.0 0.00 0.00 0.00 60 1011.6
20260509235832 68 78 1.0 2.0 0.00 0.00 0.00 59 1011.6
20260509234826 68 88 2.0 3.0 0.00 0.00 0.00 59 1011.6
20260509233821 69 63 2.0 3.0 0.00 0.00 0.00 59 1011.1
20260509232836 69 80 1.0 5.0 0.00 0.00 0.00 59 1011.1
20260509231855 69 37 1.0 5.0 0.00 0.00 0.00 59 1011.1
20260509230840 69 83 1.0 7.0 0.00 0.00 0.00 60 1011.1
20260509225819 70 57 1.0 5.0 0.00 0.00 0.00 60 1011.2
20260509224818 70 61 1.0 5.0 0.00 0.00 0.00 60 1011.2
20260509223831 70 360 2.0 5.0 0.00 0.00 0.00 60 1011.3
20260509222824 70 56 0.0 4.0 0.00 0.00 0.00 59 1011.0
20260509221858 71 279 2.0 5.0 0.00 0.00 0.00 59 1011.0
20260509220845 71 61 4.0 6.0 0.00 0.00 0.00 57 1010.8
20260509215824 71 17 2.0 5.0 0.00 0.00 0.00 57 1010.5
20260509214858 72 15 1.0 5.0 0.00 0.00 0.00 56 1010.5
20260509213851 72 63 3.0 6.0 0.00 0.00 0.00 54 1009.9
20260509212827 73 360 2.0 7.0 0.00 0.00 0.00 52 1009.8
20260509211840 73 43 3.0 4.0 0.00 0.00 0.00 53 1009.8
20260509210843 73 66 2.0 5.0 0.00 0.00 0.00 55 1009.7
20260509205822 73 18 3.0 5.0 0.00 0.00 0.00 56 1009.8
20260509204820 73 96 2.0 7.0 0.00 0.00 0.00 57 1009.8
20260509203834 73 40 1.0 6.0 0.00 0.00 0.00 57 1009.8
20260509202845 73 15 3.0 5.0 0.00 0.00 0.00 55 1009.7
20260509201837 73 45 2.0 3.0 0.00 0.00 0.00 56 1009.7
20260509200846 73 19 0.0 4.0 0.00 0.00 0.00 56 1009.6
20260509195824 74 350 1.0 4.0 0.00 0.00 0.00 56 1009.6
20260509194818 74 60 2.0 4.0 0.00 0.00 0.00 55 1009.6
20260509193831 74 64 2.0 5.0 0.00 0.00 0.00 54 1009.7
20260509192829 74 88 1.0 6.0 0.00 0.00 0.00 54 1009.9
20260509191823 74 142 1.0 3.0 0.00 0.00 0.00 52 1009.9
20260509190847 74 57 2.0 3.0 0.00 0.00 0.00 51 1010.3
20260509185831 75 248 1.0 4.0 0.00 0.00 0.00 50 1009.4
20260509184824 75 340 0.0 3.0 0.00 0.00 0.00 51 1009.4
20260509183837 74 19 0.0 4.0 0.00 0.00 0.00 52 1009.5
20260509182831 75 360 2.0 5.0 0.00 0.00 0.00 49 1010.2
20260509181828 78 277 1.0 7.0 0.00 0.00 0.00 47 1010.2
20260509180833 77 223 0.0 4.0 0.00 0.00 0.00 46 1010.3
20260509175853 75 250 1.0 4.0 0.00 0.00 0.00 49 1010.5
20260509174829 75 329 1.0 3.0 0.00 0.00 0.00 48 1010.5
20260509173823 74 329 2.0 4.0 0.00 0.00 0.00 49 1010.6
20260509172837 74 132 1.0 5.0 0.00 0.00 0.00 53 1010.1
20260509171831 72 338 0.0 3.0 0.00 0.00 0.00 55 1010.1
20260509170840 71 38 1.0 3.0 0.00 0.00 0.00 58 1010.3
20260509165839 71 32 2.0 4.0 0.00 0.00 0.00 57 1010.6
20260509164832 70 115 2.0 8.0 0.00 0.00 0.00 60 1010.6
20260509163826 70 128 4.0 6.0 0.00 0.00 0.00 60 1010.8
20260509162823 70 98 2.0 5.0 0.00 0.00 0.00 61 1011.0
20260509161837 69 72 2.0 4.0 0.00 0.00 0.00 61 1011.0
20260509160841 69 125 2.0 7.0 0.00 0.00 0.00 63 1011.2
20260509155824 69 51 1.0 5.0 0.00 0.00 0.00 62 1011.1
20260509154838 68 133 2.0 5.0 0.00 0.00 0.00 62 1011.1
20260509153831 68 180 1.0 7.0 0.00 0.00 0.00 63 1011.0
20260509152825 69 106 1.0 4.0 0.00 0.00 0.00 63 1011.1
20260509151844 68 115 4.0 7.0 0.00 0.00 0.00 61 1011.1
20260509150847 68 119 2.0 4.0 0.00 0.00 0.00 63 1011.1
20260509145847 66 201 1.0 5.0 0.00 0.00 0.00 63 1011.0
20260509144819 65 125 2.0 4.0 0.00 0.00 0.00 67 1011.0
20260509143857 64 138 0.0 2.0 0.00 0.00 0.00 68 1011.2
20260509142850 64 138 0.0 3.0 0.00 0.00 0.00 71 1011.1
20260509141824 63 179 0.0 2.0 0.00 0.00 0.00 71 1011.1
20260509140909 63 179 0.0 3.0 0.00 0.00 0.00 74 1011.2
20260509135832 62 159 1.0 3.0 0.00 0.00 0.00 77 1011.5
20260509134826 61 134 0.0 1.0 0.00 0.00 0.00 78 1011.5
20260509133820 60 134 0.0 2.0 0.00 0.00 0.00 80 1011.8
20260509132833 59 134 0.0 1.0 0.00 0.00 0.00 83 1011.8
20260509131831 57 133 0.0 1.0 0.00 0.00 0.00 85 1011.8
20260509130836 55 133 0.0 2.0 0.00 0.00 0.00 87 1012.0
20260509125836 54 209 0.0 1.0 0.00 0.00 0.00 91 1011.4
20260509124835 53 209 0.0 1.0 0.00 0.00 0.00 94 1011.4
20260509123829 51 209 0.0 0.0 0.00 0.00 0.00 95 1011.5
20260509122823 50 209 0.0 1.0 0.00 0.00 0.00 96 1011.8
20260509121833 50 209 0.0 0.0 0.00 0.00 0.00 97 1011.8
20260509120837 49 209 0.0 0.0 0.00 0.00 0.00 97 1011.9
20260509115837 48 209 0.0 0.0 0.00 0.00 0.00 97 1012.4
20260509114852 47 209 0.0 0.0 0.00 0.00 0.00 97 1012.4
20260509113829 46 209 0.0 0.0 0.00 0.00 0.00 96 1012.2
20260509112824 46 209 0.0 0.0 0.00 0.00 0.00 97 1012.2
20260509111838 46 209 0.0 0.0 0.00 0.00 0.00 96 1012.2
20260509110843 45 209 0.0 0.0 0.00 0.00 0.00 96 1012.1
20260509105848 45 209 0.0 1.0 0.00 0.00 0.00 96 1012.0
20260509104820 45 209 0.0 2.0 0.00 0.00 0.00 96 1012.0
20260509103855 45 207 0.0 0.0 0.00 0.00 0.00 96 1011.6
20260509102828 45 207 0.0 0.0 0.00 0.00 0.00 96 1011.9
20260509101825 45 207 0.0 0.0 0.00 0.00 0.00 96 1011.9
20260509100851 45 207 0.0 0.0 0.00 0.00 0.00 96 1012.6
20260509095830 45 207 0.0 1.0 0.00 0.00 0.00 96 1012.5
20260509094824 45 207 0.0 1.0 0.00 0.00 0.00 95 1012.5
20260509093822 45 207 0.0 0.0 0.00 0.00 0.00 96 1012.1
20260509092837 45 207 0.0 0.0 0.00 0.00 0.00 96 1012.1
20260509091831 45 207 0.0 1.0 0.00 0.00 0.00 96 1012.1
20260509090841 45 207 0.0 1.0 0.00 0.00 0.00 96 1012.3
20260509085821 45 207 0.0 0.0 0.00 0.00 0.00 95 1012.1
20260509084835 45 207 0.0 0.0 0.00 0.00 0.00 96 1012.1
20260509083829 45 207 0.0 0.0 0.00 0.00 0.00 95 1012.1
20260509082827 45 207 0.0 1.0 0.00 0.00 0.00 95 1012.5
20260509081821 45 207 0.0 0.0 0.00 0.00 0.00 95 1012.5
20260509080846 46 207 0.0 0.0 0.00 0.00 0.00 95 1012.6
20260509075831 45 207 0.0 0.0 0.00 0.00 0.00 95 1012.4